Tel Aviv, Israel

11:34 PM IDT on April 30, 2017 (GMT +0300)
Ben Gurion

Weather History for LLBG - April, 2017

Change the Weather History Date:

Friday, April 21, 2017

  Actual Average Record
Temperature  
Mean Temperature 76 °F -  
Max Temperature 95 °F 77 °F 95 °F (2001)
Min Temperature 58 °F 60 °F 51 °F (2007)
Cooling Degree Days 12    
Growing Degree Days 26 (Base 50)    
Moisture  
Dew Point 45 °F    
Average Humidity 36    
Maximum Humidity 73    
Minimum Humidity 9    
Precipitation  
Precipitation 0.00 in - - ()
Sea Level Pressure  
Sea Level Pressure 29.97 in    
Wind  
Wind Speed 5 mph ()    
Max Wind Speed 15 mph    
Max Gust Speed -    
Visibility 6.0 miles    
Events      
Averages and records for this station are not official NWS values.
T = Trace of Precipitation, MM = Missing Value Source: Averaged Metar Reports

Daily Weather History Graph

Daily Weather History Graph

Search for Another Location

Airport or City:

Trip Planner

Search our weather history database for the weather conditions in past years. The results will help you decide how hot, cold, wet, or windy it might be!

Date:

Astronomy

Apr. 21, 2017 Rise Set
Actual Time 6:04 AM IDT 7:13 PM IDT
Civil Twilight 5:39 AM IDT 7:39 PM IDT
Nautical Twilight 5:09 AM IDT 8:09 PM IDT
Astronomical Twilight 4:38 AM IDT 8:40 PM IDT
Moon 2:45 AM IDT (4/21) 1:58 PM IDT (4/21)
Length of Visible Light 13h 59m
Length of Day
13h 08m
Waning Crescent, 31% of the Moon is Illuminated
Apr 21
Waning Crescent
Apr 26
New
May 3
First Quarter
May 11
Full
May 19
Last Quarter

Hourly Weather History & Observations

Time (IDT) Temp. Dew Point Humidity Pressure Visibility Wind Dir Wind Speed Gust Speed Precip Events Conditions
12:00 AM 65 °F 55 °F 62% 30.10 in 6 mi 3.5 mph - -  
12:20 AM 64.4 °F 55.4 °F 73% 30.06 in - East 4.6 mph - N/A   Clear
12:50 AM 64.4 °F 53.6 °F 68% 30.06 in - East 4.6 mph - N/A   Clear
1:20 AM 62.6 °F 51.8 °F 68% 30.06 in - Variable 2.3 mph - N/A   Clear
1:50 AM 64.4 °F 51.8 °F 64% 30.06 in - Variable 2.3 mph - N/A   Clear
2:20 AM 62.6 °F 51.8 °F 68% 30.04 in - Variable 3.5 mph - N/A   Clear
2:50 AM 60.8 °F 51.8 °F 72% 30.04 in - Variable 1.2 mph - N/A   Clear
3:00 AM 61 °F 50 °F 59% 30.04 in 6 mi 1.2 mph - -  
3:20 AM 60.8 °F 48.2 °F 63% 30.04 in - Variable 1.2 mph - N/A   Clear
3:50 AM 60.8 °F 50.0 °F 68% 30.01 in - Variable 2.3 mph - N/A   Clear
4:20 AM 62.6 °F 48.2 °F 59% 30.01 in - Variable 2.3 mph - N/A   Clear
4:50 AM 59.0 °F 50.0 °F 72% 30.01 in - Variable 1.2 mph - N/A   Clear
5:20 AM 62.6 °F 48.2 °F 59% 30.01 in - East 4.6 mph - N/A   Clear
5:50 AM 59.0 °F 48.2 °F 67% 30.01 in - Variable 1.2 mph - N/A   Clear
6:00 AM 59 °F 48 °F 57% 30.03 in 6 mi 1.2 mph - -  
6:20 AM 59.0 °F 48.2 °F 67% 30.01 in - Variable 1.2 mph - N/A   Clear
6:50 AM 62.6 °F 46.4 °F 55% 30.01 in - Variable 3.5 mph - N/A   Clear
7:20 AM 64.4 °F 44.6 °F 49% 30.01 in - Variable 3.5 mph - N/A   Clear
7:50 AM 68.0 °F 42.8 °F 40% 30.01 in - Variable 3.5 mph - N/A   Clear
8:20 AM 69.8 °F 44.6 °F 40% 30.01 in - Variable 2.3 mph - N/A   Clear
8:50 AM 75.2 °F 46.4 °F 36% 30.01 in - Variable 1.2 mph - N/A   Clear
9:00 AM 74 °F 46 °F 26% 30.03 in 6 mi 1.2 mph - -  
9:20 AM 82.4 °F 46.4 °F 28% 30.01 in - Variable 1.2 mph - N/A   Clear
9:50 AM 84.2 °F 44.6 °F 25% 30.01 in - Variable 2.3 mph - N/A   Clear
10:20 AM 87.8 °F 39.2 °F 18% 30.01 in - Variable 2.3 mph - N/A   Clear
10:50 AM 89.6 °F 39.2 °F 17% 30.01 in - Variable 3.5 mph - N/A   Clear
11:20 AM 89.6 °F 48.2 °F 24% 30.01 in - WNW 9.2 mph - N/A   Clear
11:50 AM 89.6 °F 50.0 °F 26% 29.98 in - WNW 10.4 mph - N/A   Clear
12:00 PM 90 °F 49 °F 15% 30.00 in 6 mi WNW 10.4 mph - -  
12:20 PM 89.6 °F 46.4 °F 22% 29.98 in - West 11.5 mph - N/A   Clear
12:50 PM 89.6 °F 42.8 °F 20% 29.98 in - NW 9.2 mph - N/A   Clear
1:20 PM 93.2 °F 42.8 °F 17% 29.95 in - WNW 9.2 mph - N/A   Clear
1:50 PM 93.2 °F 41.0 °F 16% 29.95 in - NW 11.5 mph - N/A   Clear
2:20 PM 95.0 °F 42.8 °F 16% 29.95 in - NNW 8.1 mph - N/A   Clear
2:50 PM 95.0 °F 41.0 °F 15% 29.92 in - NNW 10.4 mph - N/A   Clear
3:00 PM 95 °F 43 °F 9% 29.93 in 6 mi NNW 9.2 mph - -  
3:20 PM 95.0 °F 41.0 °F 15% 29.92 in - NNW 12.7 mph - N/A   Clear
3:50 PM 93.2 °F 39.2 °F 15% 29.92 in - NW 13.8 mph - N/A   Clear
4:20 PM 93.2 °F 39.2 °F 15% 29.89 in - NNW 13.8 mph - N/A   Clear
4:50 PM 91.4 °F 39.2 °F 16% 29.89 in - NNW 15.0 mph - N/A   Clear
5:20 PM 91.4 °F 39.2 °F 16% 29.92 in - NNW 13.8 mph - N/A   Clear
5:50 PM 89.6 °F 39.2 °F 17% 29.89 in - North 13.8 mph - N/A   Clear
6:00 PM 89 °F 40 °F 10% 29.91 in 6 mi North 12.7 mph - -  
6:20 PM 87.8 °F 41.0 °F 19% 29.89 in - North 11.5 mph - N/A   Clear
6:50 PM 86.0 °F 42.8 °F 22% 29.92 in - North 10.4 mph - N/A   Clear
7:20 PM 84.2 °F 42.8 °F 23% 29.92 in - North 11.5 mph - N/A   Clear
7:50 PM 82.4 °F 41.0 °F 23% 29.92 in - North 10.4 mph - N/A   Clear
8:20 PM 80.6 °F 42.8 °F 26% 29.92 in - North 10.4 mph - N/A   Clear
8:50 PM 80.6 °F 42.8 °F 26% 29.92 in - North 9.2 mph - N/A   Clear
9:00 PM 81 °F 43 °F 16% 29.92 in 6 mi North 9.2 mph - -  
9:20 PM 80.6 °F 44.6 °F 28% 29.92 in - North 9.2 mph - N/A   Clear
9:50 PM 77.0 °F 46.4 °F 34% 29.92 in - Variable 2.3 mph - N/A   Clear
10:20 PM 75.2 °F 46.4 °F 36% 29.92 in - Variable 3.5 mph - N/A   Clear
10:50 PM 75.2 °F 46.4 °F 36% 29.92 in - ENE 5.8 mph - N/A   Clear
11:20 PM 73.4 °F 46.4 °F 38% 29.89 in - NE 4.6 mph - N/A   Clear
11:50 PM 71.6 °F 46.4 °F 41% 29.89 in - NNW 5.8 mph - N/A   Clear